Weather History for Alliance, NE

Change the Weather History Date:

Thursday, June 12, 2014

  Actual Average Record
Temperature  
Mean Temperature 55 °F 64 °F  
Max Temperature 67 °F 79 °F 101 °F (1952)
Min Temperature 42 °F 49 °F 32 °F (1947)
Degree Days  
Heating Degree Days 10 4  
Month to date heating degree days 75 58  
Since 1 June heating degree days 75 58  
Since 1 July heating degree days 7494 7273  
Cooling Degree Days 0 2  
Month to date cooling degree days 4 20  
Year to date cooling degree days 18 30  
Since 1 June cooling degree days 4 20  
Growing Degree Days 4 (Base 50)    
Moisture  
Dew Point 45 °F    
Average Humidity 76    
Maximum Humidity 100    
Minimum Humidity 52    
Precipitation  
Precipitation 0.00 in 0.11 in 1.46 in (2005)
Month to date precipitation 3.39 1.25  
Year to date precipitation 10.89 6.76  
Sea Level Pressure  
Sea Level Pressure 30.10 in    
Wind  
Wind Speed 7 mph (ENE)    
Max Wind Speed 14 mph    
Max Gust Speed 17 mph    
Visibility 10 miles    
Events      
T = Trace of Precipitation, MM = Missing Value Source: NWS Daily Summary

Daily Weather History Graph

Daily Weather History Graph

Search for Another Location

Airport:

Trip Planner

Search our weather history database for the weather conditions in past years. The results will help you decide how hot, cold, wet, or windy it might be!

Date:

Astronomy

Jun. 12, 2014 Rise Set
Actual Time 5:14 AM MDT 8:27 PM MDT
Civil Twilight 4:40 AM MDT 9:01 PM MDT
Nautical Twilight 3:56 AM MDT 9:46 PM MDT
Astronomical Twilight 3:03 AM MDT 10:39 PM MDT
Moon 8:00 PM MDT 4:59 AM MDT
Length of Visible Light 16h 21m
Length of Day
15h 12m
Full, 100% of the Moon is Illuminated
Jun 12
Full
Jun 12
Full
Jun 19
Last Quarter
Jun 27
New
Jul 5
First Quarter

Hourly Weather History & Observations

Time (MDT) Temp. Windchill Dew Point Humidity Pressure Visibility Wind Dir Wind Speed Gust Speed Precip Events Conditions
12:53 AM 46.9 °F - 45.0 °F 93% 30.08 in 10.0 mi North 8.1 mph - N/A   Clear
1:53 AM 46.0 °F 42.5 °F 44.1 °F 93% 30.09 in 10.0 mi NNE 6.9 mph - N/A   Clear
2:53 AM 46.0 °F 44.8 °F 43.0 °F 89% 30.08 in 10.0 mi NNW 3.5 mph - N/A   Clear
3:53 AM 46.9 °F - 44.1 °F 90% 30.05 in 10.0 mi NNE 12.7 mph - N/A   Overcast
4:53 AM 44.1 °F 42.5 °F 42.1 °F 93% 30.11 in 10.0 mi SW 3.5 mph - N/A   Scattered Clouds
5:53 AM 43.0 °F 39.5 °F 42.1 °F 97% 30.14 in 10.0 mi West 5.8 mph - N/A   Partly Cloudy
6:53 AM 48.0 °F - 45.0 °F 89% 30.13 in 10.0 mi WNW 4.6 mph - N/A   Clear
8:53 AM 53.1 °F - 43.0 °F 69% 30.17 in 10.0 mi NE 4.6 mph - N/A   Mostly Cloudy
9:53 AM 55.0 °F - 45.0 °F 69% 30.17 in 10.0 mi North - - N/A   Mostly Cloudy
10:27 AM 57.0 °F - 45.0 °F 64% 30.20 in 10.0 mi North 4.6 mph - N/A   Overcast
10:53 AM 57.9 °F - 45.0 °F 62% 30.15 in 10.0 mi North 3.5 mph - N/A   Mostly Cloudy
11:53 AM 60.1 °F - 45.0 °F 57% 30.15 in 10.0 mi NNE 4.6 mph - N/A   Partly Cloudy
12:53 PM 61.0 °F - 46.0 °F 58% 30.14 in 10.0 mi North - - N/A   Partly Cloudy
1:53 PM 64.0 °F - 46.9 °F 54% 30.11 in 10.0 mi ESE 5.8 mph - N/A   Partly Cloudy
2:53 PM 64.0 °F - 46.9 °F 54% 30.10 in 10.0 mi Variable 5.8 mph - N/A   Clear
3:53 PM 64.0 °F - 46.0 °F 52% 30.08 in 10.0 mi Variable 4.6 mph - N/A   Partly Cloudy
4:53 PM 64.9 °F - 46.9 °F 52% 30.07 in 10.0 mi Variable 4.6 mph - N/A   Clear
5:53 PM 64.0 °F - 46.9 °F 54% 30.06 in 10.0 mi SE 8.1 mph - N/A   Partly Cloudy
6:53 PM 64.0 °F - 46.0 °F 52% 30.04 in 10.0 mi SE 9.2 mph - N/A   Clear
7:53 PM 60.1 °F - 48.9 °F 67% 30.03 in 10.0 mi ESE 8.1 mph - N/A   Clear
8:53 PM 53.1 °F - 48.0 °F 83% 30.05 in 10.0 mi SE 8.1 mph - N/A   Clear
9:53 PM 51.1 °F - 46.0 °F 83% 30.06 in 10.0 mi SE 9.2 mph - N/A   Clear
10:53 PM 52.0 °F - 46.9 °F 83% 30.04 in 10.0 mi SSE 10.4 mph - N/A   Clear
11:53 PM 53.1 °F - 46.9 °F 80% 30.02 in 10.0 mi SE 10.4 mph - N/A   Partly Cloudy